Location: Helstorf
(52.5868°N, 9.5862°E)
Time: 13:47:42
(UTC+00:00)

Cosmos 2263 Rocket - Pass Details

Date: 15 May 2026
Orbit: 824 x 846 km, 71.0° (Epoch: 11 June)

Event Time Altitude Azimuth Distance (km) Brightness Sun altitude
Exits shadow 23:03:46 15° 124° (SE) 2,075 3.9 -18.3°
Maximum altitude 23:05:40 18° 100° (E) 1,925 3.9 -18.3°
Drops below altitude 10° 23:09:19 10° 58° (ENE) 2,438 5.0 -18.3°
Sets 23:12:28 0° 41° (NE) 3,374 6.1 -18.4°
